Regional Weather Roundup
Issued by NWS

Home | Current Version | Previous Version | Text Only | Print | Product List | Glossary On
Versions: 1 2 3 4 5 6 7 8 9 10 11 12 13 14 15 16 17 18 19 20 21 22 23 24 25 26 27 28 29 30 31 32 33 34 35 36 37 38 39 40 41 42 43 44 45 46 47 48 49 50
000
ASCA42 TJSJ 260911
RWRPR
PUERTO RICO/U.S. VIRGIN ISLANDS HOURLY WEATHER ROUNDUP
NATIONAL WEATHER SERVICE SAN JUAN PR
500 AM AST SAT JUL 26 2014

PRZ001-004-261000-
PUERTO RICO

CITY           SKY/WX    TMP DP  RH WIND       PRES   REMARKS
SAN JUAN LMM   PTCLDY    81  73  78 E6        30.02R
PONCE          CLEAR     81  72  74 E6        29.97S
CEIBA          CLOUDY    82  72  69 E8        30.05R
$$

PRZ006-007-261000-
U.S. VIRGIN ISLANDS

CITY           SKY/WX    TMP DP  RH WIND       PRES   REMARKS
CHARLOTTE AMA  PTCLDY    82  75  78 SE10G18   30.01R
CHRISTIANSTED  MOCLDY    81  73  78 E13       30.01R
$$

HOURLY WEATHER ROUNDUP FOR THE NEWS MEDIA

CITY           SKY/WX    TMP DP  RH WIND       PRES   REMARKS
MIAMI          MOCLDY    81  76  84 W3        30.05S
ORLANDO        CLEAR     77  74  90 SW5       30.05S
NEW YORK       CLOUDY    70  62  76 W7        30.00S
NEWARK         CLOUDY    67  60  78 SW7       29.99S
CHICAGO        MOCLDY    68  57  68 S3        29.86F
HARTFORD       CLEAR     59  58  96 CALM      29.98S
BOSTON         CLEAR     65  58  78 S6        29.96F
DALLAS         CLEAR     82  70  66 S10       29.95S
PHILADELPHIA   CLOUDY    69  60  73 S5        30.01S


USA.gov is the U.S. government's official web portal to all federal, state and local government web resources and services.